Regional Weather Roundup
Issued by NWS Cleveland, OH

Home | Current Version | Previous Version | Graphics & Text | Print | Product List | Glossary On
Versions: 1 2 3 4 5 6 7 8 9 10 11 12 13 14 15 16 17 18 19 20 21 22 23 24 25 26 27 28 29 30 31 32 33 34 35 36 37 38 39 40 41 42 43 44 45 46 47 48 49 50
000
ASUS41 KCLE 230902
RWRCLE
OHIO REGIONAL WEATHER ROUNDUP
NATIONAL WEATHER SERVICE CLEVELAND, OH
500 AM EDT SAT JUL 23 2016

NOTE: "FAIR" INDICATES FEW OR NO CLOUDS BELOW 12,000 FEET WITH NO
SIGNIFICANT WEATHER AND/OR OBSTRUCTIONS TO VISIBILITY.

OHZ001>008-015>018-024>027-034-035-043-044-231000-
   NORTHWEST OHIO

CITY           SKY/WX    TMP DP  RH WIND       PRES   REMARKS
DEFIANCE       CLEAR     71  68  90 CALM      30.00S
FINDLAY        CLEAR     74  69  85 W5        30.00R
TOLEDO EXPRESS CLEAR     73  72  96 W3        29.99S
TOLEDO EXEC    CLEAR     74  71  91 NW5       29.99S
LIMA           CLEAR     71  71 100 SW3       30.02R
$$

OHZ009>014-019>023-028>033-038-089-231000-
   NORTHEAST OHIO

CITY           SKY/WX    TMP DP  RH WIND       PRES   REMARKS
CLE-HOPKINS    PTCLDY    76  71  85 SW6       30.00S
CLE-LAKEFRONT  CLEAR     78  73  84 SW8       29.96S
CUY CO. ARPT   NOT AVBL
LORAIN-ELYRIA  CLEAR     72  70  93 W6        29.99S FOG
ASHTABULA      CLEAR     70  69  97 CALM      29.98S
AKRON-CANTON   PTCLDY    73  70  90 W5        30.01S FOG
WOOSTER        PTCLDY    70  69  97 SW3       30.01S FOG
MANSFIELD      PTCLDY    74  73  97 W6        30.02S
YOUNGSTOWN     PTCLDY    71  69  93 SW3       30.00R
$$

OHZ042-051>053-060>062-070>072-077>081-231000-
  SOUTHWEST OHIO

CITY           SKY/WX    TMP DP  RH WIND       PRES   REMARKS
CINC-COVINGTON PTCLDY    73  71  93 CALM      30.01F
CINC-LUNKEN    FOG       69  69 100 CALM      30.01F VSB 1/2
HAMILTON       PTCLDY    70  68  93 CALM      30.02F FOG
DAYTON         CLEAR     71  71 100 W5        30.04S FOG
WRIGHT-PAT AFB CLEAR     72  72 100 S2        30.02S
DAYTON GENERAL CLEAR     73  69  87 CALM      30.03R
WILMINGTON     CLEAR     69  68  96 CALM      30.03S FOG
$$

OHZ036-037-039>041-045>050-054>059-063>069-073>076-082>088-231000-
  CENTRAL AND SOUTHEAST OHIO

CITY           SKY/WX    TMP DP  RH WIND       PRES   REMARKS
COLUMBUS       CLEAR     70  69  97 S3        30.01S
OSU AIRPORT    CLEAR     73  71  93 CALM      30.01S
BOLTON FIELD   CLEAR     70  70 100 CALM      30.02S FOG
RICKENBACK AFB NOT AVBL
NEWARK         CLEAR     68  67  96 CALM      30.02R FOG
MARION         CLEAR     74  71  91 W5        30.01F FOG
LANCASTER      CLEAR     68  67  96 CALM      30.02S
ZANESVILLE     CLEAR     70  66  87 CALM      30.02S
NEW PHILLY     MOCLDY    74  69  85 CALM      30.01S
$$




USA.gov is the U.S. government's official web portal to all federal, state and local government web resources and services.